Location: Newark
(36.3000°N, 3.6667°E)
Time: 02:48:15
(UTC+00:00)

ISS - Visible Passes

Search period start: 18 July 2019 00:00
Search period end: 28 July 2019 00:00
Orbit: 409 x 418 km, 51.6° (Epoch: 18 July)

Date Brightness Start Highest point End Pass type
(mag) Time Alt. Az. Time Alt. Az. Time Alt. Az.
18 Jul -1.8 02:44:47 10° NNW 02:47:47 31° NE 02:50:47 10° E visible
18 Jul -1.1 21:02:00 10° W 21:04:39 21° NNW 21:07:19 10° NNE visible
19 Jul -1.0 01:55:48 10° NNW 01:58:20 20° NNE 02:00:53 10° E visible
19 Jul -3.5 03:32:00 10° WNW 03:35:10 43° SW 03:38:18 10° SSE visible
19 Jul -1.9 20:12:08 10° WSW 20:15:13 34° NW 20:18:18 10° NNE visible
20 Jul -0.5 01:07:00 10° N 01:08:49 14° NNE 01:09:03 14° NNE visible
20 Jul -4.0 02:45:52 87° WNW 02:45:55 89° SSW 02:49:12 10° SE visible
20 Jul -3.2 19:22:31 10° WSW 19:25:50 62° NW 19:29:09 10° NE visible
20 Jul -0.3 21:01:50 10° NW 21:03:04 12° NNW 21:04:18 10° N visible
21 Jul -0.6 20:11:17 10° WNW 20:13:29 16° NNW 20:15:41 10° NNE visible
26 Jul -0.2 22:34:32 10° NNW 22:34:47 11° N 22:34:47 11° N visible
27 Jul -0.7 21:45:49 10° N 21:46:55 12° NNE 21:46:55 12° NNE visible
